Tetonia, ID

8:37 PM MST on February 12, 2016 (GMT -0700)
Driggs

Weather History for KDIJ - December, 2011

Change the Weather History Date:

Thursday, December 8, 2011

  Actual Average (KRXE) Record (KRXE)
Temperature  
Mean Temperature 13 °F 22 °F  
Max Temperature 23 °F 30 °F 46 °F (2006)
Min Temperature 1 °F 13 °F -16 °F (2013)
Degree Days  
Heating Degree Days 52 44  
Month to date heating degree days 340  
Since 1 July heating degree days 2352  
Cooling Degree Days 0 0  
Month to date cooling degree days 0  
Year to date cooling degree days 208  
Moisture  
Dew Point 9 °F    
Average Humidity 85    
Maximum Humidity 93    
Minimum Humidity 68    
Precipitation  
Precipitation 0.00 in 0.02 in 0.09 in (2008)
Month to date precipitation 0.20  
Year to date precipitation 12.23  
Sea Level Pressure  
Sea Level Pressure 30.30 in    
Wind  
Wind Speed 4 mph (SE)    
Max Wind Speed 7 mph    
Max Gust Speed -    
Visibility 8 miles    
Events Fog    
T = Trace of Precipitation, MM = Missing Value Source: NWS Daily Summary

Daily Weather History Graph

Daily Weather History Graph

Search for Another Location

Airport or City:

Trip Planner

Search our weather history database for the weather conditions in past years. The results will help you decide how hot, cold, wet, or windy it might be!

Date:

Astronomy

Dec. 08, 2011 Rise Set
Actual Time 7:45 AM MST 4:47 PM MST
Civil Twilight 7:12 AM MST 5:19 PM MST
Nautical Twilight 6:36 AM MST 5:55 PM MST
Astronomical Twilight 6:01 AM MST 6:30 PM MST
Moon 3:29 PM MST (12/8) 6:00 AM MST (12/8)
Length of Visible Light 10h 07m
Length of Day
9h 01m
Waxing Gibbous, 97% of the Moon is Illuminated
Dec 8
Waxing Gibbous
Dec 10
Full
Dec 17
Last Quarter
Dec 24
New
Dec 31
First Quarter

Hourly Weather History & Observations

Time (MST) Temp. Windchill Dew Point Humidity Pressure Visibility Wind Dir Wind Speed Gust Speed Precip Events Conditions
12:56 AM 14.0 °F 5.1 °F 12.0 °F 92% 30.28 in 10.0 mi SSE 5.8 mph - 0.00 in   Mostly Cloudy
1:56 AM 18.1 °F 8.9 °F 15.1 °F 88% 30.27 in 10.0 mi NE 6.9 mph - N/A   Overcast
2:56 AM 20.1 °F 12.3 °F 16.2 °F 85% 30.25 in 10.0 mi East 5.8 mph - N/A   Overcast
3:56 AM 18.1 °F 11.3 °F 14.0 °F 84% 30.26 in 10.0 mi WSW 4.6 mph - N/A   Overcast
5:01 AM 8.6 °F 0.1 °F 6.8 °F 92% 30.18 in 1.2 mi NE 4.6 mph - N/A   Mostly Cloudy
5:21 AM 8.6 °F 2.0 °F 5.0 °F 85% 30.18 in 0.2 mi NE 3.5 mph - N/A Fog Light Freezing Fog
5:56 AM 10.0 °F 1.8 °F 7.2 °F 88% 30.31 in 4.0 mi SE 4.6 mph - N/A   Clear
6:56 AM 7.2 °F 0.3 °F 3.0 °F 83% 30.36 in 10.0 mi South 3.5 mph - N/A   Clear
7:11 AM 10.4 °F 2.2 °F 6.8 °F 85% 30.22 in 10.0 mi South 4.6 mph - N/A   Scattered Clouds
7:20 AM 8.6 °F 0.1 °F 5.0 °F 85% 30.21 in 7.0 mi South 4.6 mph - N/A   Mostly Cloudy
7:56 AM 5.0 °F -4.1 °F 2.1 °F 88% 30.38 in 10.0 mi SE 4.6 mph - N/A   Overcast
8:07 AM 6.8 °F -0.1 °F 3.2 °F 85% 30.22 in 1.0 mi SE 3.5 mph - N/A   Overcast
8:09 AM 8.6 °F 2.0 °F 5.0 °F 85% 30.22 in 0.5 mi SE 3.5 mph - N/A Fog Light Freezing Fog
8:16 AM 10.4 °F 4.0 °F 6.8 °F 85% 30.22 in 0.2 mi ESE 3.5 mph - N/A Fog Light Freezing Fog
8:38 AM 12.2 °F - 10.4 °F 92% 30.23 in 1.2 mi Calm Calm - N/A   Overcast
8:41 AM 12.2 °F 6.1 °F 10.4 °F 92% 30.23 in 3.0 mi SSE 3.5 mph - N/A   Overcast
8:56 AM 14.0 °F - 11.1 °F 88% 30.37 in 6.0 mi Calm Calm - N/A   Overcast
9:19 AM 15.8 °F 10.2 °F 12.2 °F 86% 30.23 in 10.0 mi SE 3.5 mph - N/A   Overcast
9:37 AM 15.8 °F - 14.0 °F 93% 30.24 in 10.0 mi Calm Calm - N/A   Overcast
9:56 AM 17.1 °F 11.7 °F 15.1 °F 92% 30.36 in 10.0 mi SSE 3.5 mph - N/A   Overcast
10:56 AM 20.1 °F - 18.1 °F 92% 30.35 in 10.0 mi Calm Calm - N/A   Scattered Clouds
11:56 AM 23.0 °F - 15.1 °F 72% 30.32 in 10.0 mi Calm Calm - N/A   Clear
12:56 PM 20.1 °F - 12.0 °F 71% 30.33 in 10.0 mi Calm Calm - N/A   Clear
1:56 PM 21.0 °F 14.6 °F 13.1 °F 71% 30.31 in 10.0 mi NW 4.6 mph - N/A   Clear
2:56 PM 19.0 °F - 13.1 °F 78% 30.30 in 10.0 mi Calm Calm - N/A   Clear
3:56 PM 21.0 °F - 12.0 °F 68% 30.30 in 10.0 mi Calm Calm - N/A   Overcast
4:56 PM 13.1 °F 5.4 °F 10.0 °F 88% 30.37 in 9.0 mi WSW 4.6 mph - N/A   Clear
6:56 PM 13.1 °F 7.1 °F 10.0 °F 88% 30.41 in 10.0 mi East 3.5 mph - N/A   Overcast
7:56 PM 14.0 °F - 10.0 °F 84% 30.42 in 10.0 mi Calm Calm - N/A   Overcast
8:56 PM 10.0 °F - 7.2 °F 88% 30.41 in 10.0 mi Calm Calm - N/A   Mostly Cloudy
9:56 PM 5.0 °F -2.1 °F 2.1 °F 88% 30.42 in 10.0 mi East 3.5 mph - N/A   Clear
10:56 PM 3.0 °F -4.4 °F -0.9 °F 84% 30.41 in 10.0 mi NE 3.5 mph - N/A   Clear
11:56 PM 1.0 °F -6.7 °F -1.8 °F 88% 30.42 in 10.0 mi SE 3.5 mph - N/A   Clear